ONEWEB-0015, 61594

Orbit data source: Space-Track

ONEWEB-0015, 61594 is a payload satellite owned by Eut. One Web (UK) in LEO that was launched on Sun, 20 Oct 2024 UTC via an FALCON 9 launch vehicle from the Air Force Western Test Range (AFWTR). Payload-class satellites include a variety of spacecraft equipped with specific instruments for various scientific and technological missions. These include communications satellites like Starlink; space stations such as the ISS; scientific satellites like the Hubble; Earth observation satellites from companies like Planet Labs, Umbra, and HawkEye 360; GPS; miniature CubeSats for education and research; and military/defense satellites.

Loading next visibility...
Identifier
61594, 2024-188A
Orbit
LEO
Country
Flag of UKUK
Related business
Manufacturer
One Web
Mission
Operational Commercial Communications
Bus & Motor
ARROW, Unknown motor
Mass
148 kg wet, ~140 kg dry
Launch date (UTC)
2024-10-20 (1 year ago)
Launch vehicle
FALCON 9
Launch site
Air Force Western Test Range (AFWTR)
Object type
Payload
Rocket body
Debris
Shape & HBR
Trap Box + 2 Pan, 6.7 m
Radar Cross Section
3.464 m², Large (>1 m²)

Expand to show TLE details & history
Last TLE update: 13 hours ago

TLE from 13 hours ago
0 ONEWEB-0015
1 61594U 24188A   26035.55308903  .00000539  00000-0  14852-2 0  9996
2 61594  87.8813  47.4885 0002250  77.2755 282.8625 13.11417616 67074
Epoch: 2026-02-04T13:16Z
TLE epoch observation values (Epoch: 2026-02-04T13:16:26.892Z)
Latitude
0.00006°
Longitude
73.65843°
Altitude
1,220.189 km
Speed
7.244 km/s
True Right ascension
03h 09m 57s
True Declination
0° 00' 00"
Sunlit
Object was in daylight at epoch
Visualization orbit readout
Latitude
Unknown
Longitude
Unknown
Altitude
Unknown
Speed
Unknown
Apparent Right ascension
Unknown
Apparent Declination
Unknown
Sunlit
N/A
Visualization observer readout
Local Sidereal Time
04:39:28
Azimuth
Unknown
Elevation
Unknown
Doppler factor
Unknown
Orbital elements
Apogee altitude
1,216.507 km
Perigee altitude
1,213.09 km
Semi-major axis
7,592.935 km
Eccentricity
0.00023
Inclination
87.8813°
RAAN
47.4885°
Arg. of periapsis
77.2755°
True anomaly
282.83736°
Mean anomaly
282.8625°
Eccentric anomaly
282.84993°
Mean motion
3.28041 °/min
Orbital period
109.74 mins
BSTAR
0.0014852
Loading maneuver chart data...
Computing Atmospheric mass density...
Loading historical data...
Loading historical data...
Loading historical data...
Loading historical data...
Loading historical data...
Loading historical data...
Loading historical data...

Documentation

Showing up to 5 results
|